Location: Forest Hills
(36.0651°N, 86.8403°W)
Time: 00:12:04
(UTC+00:00)

ARIANE 6 FM1 Upper Stage - Pass Details

Date: 27 January 2026
Orbit: 522 x 609 km, 62.0° (Epoch: 10 February)

Event Time Altitude Azimuth Distance (km) Brightness Sun altitude
Rises 23:54:18 0° 244° (WSW) 2,719 8.2 -9.7°
Reaches altitude 10° 23:56:54 10° 259° (W) 1,812 6.9 -10.2°
Maximum altitude 00:00:08 22° 312° (NW) 1,192 4.7 -10.8°
Drops below altitude 10° 00:03:20 10° 5° (N) 1,785 5.0 -11.4°
Enters shadow 00:05:21 - 19° (NNE) 2,475 5.6 -11.8°
